Time,TemperatureF,DewpointF,PressureIn,WindDirection,WindDirectionDegrees,WindSpeedMPH,WindSpeedGustMPH,Humidity,HourlyPrecipIn,Conditions,Clouds,dailyrainin,SoftwareType,DateUTC
2012-12-14 00:01:00,37.4,36.9,29.75,SE,135,0.0,0.0,98,0.00,,,0.00,WUHU21623XXSP,2012-12-14 08:01:00,
2012-12-14 00:06:00,37.2,36.9,29.75,ESE,112,0.0,0.0,98,0.00,,,0.00,WUHU21623XXSP,2012-12-14 08:06:00,
2012-12-14 00:11:00,37.2,36.7,29.75,ESE,112,0.0,0.0,98,0.00,,,0.00,WUHU21623XXSP,2012-12-14 08:11:00,
2012-12-14 00:16:00,37.4,36.7,29.75,ESE,112,0.0,0.0,98,0.00,,,0.00,WUHU21623XXSP,2012-12-14 08:16:00,
2012-12-14 00:21:00,37.2,36.7,29.75,ESE,112,0.0,0.0,98,0.00,,,0.00,WUHU21623XXSP,2012-12-14 08:21:00,
2012-12-14 00:26:00,37.2,36.7,29.75,ESE,112,0.0,0.0,98,0.00,,,0.00,WUHU21623XXSP,2012-12-14 08:26:00,
2012-12-14 00:31:00,37.4,36.7,29.75,ESE,112,0.0,0.0,98,0.00,,,0.00,WUHU21623XXSP,2012-12-14 08:31:00,
2012-12-14 00:36:00,37.2,36.7,29.75,ESE,112,0.0,0.0,98,0.00,,,0.00,WUHU21623XXSP,2012-12-14 08:36:00,
2012-12-14 00:41:00,37.2,36.7,29.75,ESE,112,0.0,0.0,98,0.00,,,0.00,WUHU21623XXSP,2012-12-14 08:41:00,
2012-12-14 00:46:00,37.2,36.7,29.75,ESE,112,0.0,0.0,98,0.00,,,0.00,WUHU21623XXSP,2012-12-14 08:46:00,
2012-12-14 00:51:00,37.2,36.7,29.75,ESE,112,0.0,0.0,98,0.00,,,0.00,WUHU21623XXSP,2012-12-14 08:51:00,
2012-12-14 00:56:00,37.4,36.7,29.75,ESE,112,0.0,0.0,98,0.00,,,0.00,WUHU21623XXSP,2012-12-14 08:56:00,
2012-12-14 01:01:00,37.4,36.9,29.75,ESE,112,0.0,0.0,98,0.00,,,0.00,WUHU21623XXSP,2012-12-14 09:01:00,
2012-12-14 01:06:00,37.4,36.9,29.74,ESE,112,0.0,0.0,98,0.00,,,0.00,WUHU21623XXSP,2012-12-14 09:06:00,
2012-12-14 01:11:00,37.4,36.9,29.75,ESE,112,0.0,0.0,98,0.00,,,0.00,WUHU21623XXSP,2012-12-14 09:11:00,
2012-12-14 01:16:00,37.4,36.9,29.75,ESE,112,0.0,0.0,98,0.00,,,0.00,WUHU21623XXSP,2012-12-14 09:16:00,
2012-12-14 01:21:00,37.4,36.9,29.75,ESE,112,0.0,0.0,98,0.00,,,0.00,WUHU21623XXSP,2012-12-14 09:21:00,
2012-12-14 01:26:00,37.4,36.9,29.75,East,90,0.0,0.0,98,0.00,,,0.00,WUHU21623XXSP,2012-12-14 09:26:00,
2012-12-14 01:31:00,37.2,36.7,29.74,ESE,112,0.0,0.0,98,0.00,,,0.00,WUHU21623XXSP,2012-12-14 09:31:00,
2012-12-14 01:36:00,37.2,36.7,29.75,ESE,112,0.0,0.0,98,0.00,,,0.00,WUHU21623XXSP,2012-12-14 09:36:00,
2012-12-14 01:41:00,37.2,36.7,29.75,SE,135,0.0,0.0,98,0.00,,,0.00,WUHU21623XXSP,2012-12-14 09:41:00,
2012-12-14 01:46:00,37.2,36.7,29.74,SE,135,0.0,0.0,98,0.00,,,0.00,WUHU21623XXSP,2012-12-14 09:46:00,
2012-12-14 01:51:00,37.2,36.7,29.74,SSE,157,0.0,0.0,98,0.00,,,0.00,WUHU21623XXSP,2012-12-14 09:51:00,
2012-12-14 01:56:00,37.2,36.7,29.74,SSE,157,0.0,0.0,98,0.00,,,0.00,WUHU21623XXSP,2012-12-14 09:56:00,
2012-12-14 02:01:00,37.2,36.7,29.74,South,180,0.0,0.0,98,0.00,,,0.00,WUHU21623XXSP,2012-12-14 10:01:00,
2012-12-14 02:06:00,37.2,36.7,29.74,SW,225,0.0,0.0,98,0.00,,,0.00,WUHU21623XXSP,2012-12-14 10:06:00,
2012-12-14 02:11:00,37.2,36.7,29.75,SW,225,0.0,0.0,98,0.00,,,0.00,WUHU21623XXSP,2012-12-14 10:11:00,
2012-12-14 02:16:00,37.2,36.7,29.74,South,180,0.0,0.0,98,0.00,,,0.00,WUHU21623XXSP,2012-12-14 10:16:00,
2012-12-14 02:21:00,37.0,36.5,29.75,South,180,0.0,0.0,98,0.00,,,0.00,WUHU21623XXSP,2012-12-14 10:21:00,
2012-12-14 02:26:00,37.0,36.5,29.75,South,180,0.0,0.0,98,0.00,,,0.00,WUHU21623XXSP,2012-12-14 10:26:00,
2012-12-14 02:31:00,37.0,36.5,29.75,SE,135,0.0,0.0,98,0.00,,,0.00,WUHU21623XXSP,2012-12-14 10:31:00,
2012-12-14 02:36:00,37.0,36.5,29.75,SE,135,0.0,0.0,98,0.00,,,0.00,WUHU21623XXSP,2012-12-14 10:36:00,
2012-12-14 02:41:00,37.0,36.5,29.75,SE,135,0.0,0.0,98,0.00,,,0.00,WUHU21623XXSP,2012-12-14 10:41:00,
2012-12-14 02:46:00,36.9,36.3,29.75,SE,135,0.0,0.0,98,0.00,,,0.00,WUHU21623XXSP,2012-12-14 10:46:00,
2012-12-14 02:51:00,36.9,36.3,29.74,SE,135,0.0,0.0,98,0.00,,,0.00,WUHU21623XXSP,2012-12-14 10:51:00,
2012-12-14 02:56:00,36.9,36.3,29.74,ESE,112,0.0,0.0,98,0.00,,,0.00,WUHU21623XXSP,2012-12-14 10:56:00,
2012-12-14 03:01:00,36.9,36.3,29.74,ESE,112,0.0,0.0,98,0.00,,,0.00,WUHU21623XXSP,2012-12-14 11:01:00,
2012-12-14 03:06:00,36.9,36.3,29.75,ESE,112,0.0,0.0,98,0.00,,,0.00,WUHU21623XXSP,2012-12-14 11:06:00,
2012-12-14 03:11:00,36.9,36.3,29.75,ESE,112,0.0,0.0,98,0.00,,,0.00,WUHU21623XXSP,2012-12-14 11:11:00,
2012-12-14 03:16:00,36.9,36.3,29.75,ESE,112,0.0,0.0,98,0.00,,,0.00,WUHU21623XXSP,2012-12-14 11:16:00,
2012-12-14 03:21:00,36.9,36.3,29.75,ESE,112,0.0,0.0,98,0.00,,,0.00,WUHU21623XXSP,2012-12-14 11:21:00,
2012-12-14 03:26:00,36.9,36.3,29.75,ESE,112,0.0,0.0,98,0.00,,,0.00,WUHU21623XXSP,2012-12-14 11:26:00,
2012-12-14 03:31:00,36.9,36.3,29.74,ESE,112,0.0,0.0,98,0.00,,,0.00,WUHU21623XXSP,2012-12-14 11:31:00,
2012-12-14 03:36:00,36.9,36.3,29.75,ESE,112,0.0,0.0,98,0.00,,,0.00,WUHU21623XXSP,2012-12-14 11:36:00,
2012-12-14 03:41:00,36.9,36.3,29.75,ESE,112,0.0,0.0,98,0.00,,,0.00,WUHU21623XXSP,2012-12-14 11:41:00,
2012-12-14 03:46:00,36.9,36.3,29.75,ESE,112,0.0,0.0,98,0.00,,,0.00,WUHU21623XXSP,2012-12-14 11:46:00,
2012-12-14 03:51:00,36.7,36.1,29.74,ESE,112,0.0,0.0,98,0.00,,,0.00,WUHU21623XXSP,2012-12-14 11:51:00,
2012-12-14 03:56:00,36.7,35.9,29.75,ESE,112,0.0,0.0,97,0.00,,,0.00,WUHU21623XXSP,2012-12-14 11:56:00,
2012-12-14 04:02:00,36.7,35.9,29.75,ESE,112,0.0,0.0,97,0.00,,,0.00,WUHU21623XXSP,2012-12-14 12:02:00,
2012-12-14 04:07:00,36.7,35.9,29.75,ESE,112,0.0,0.0,97,0.00,,,0.00,WUHU21623XXSP,2012-12-14 12:07:00,
2012-12-14 04:12:00,36.5,35.7,29.75,ESE,112,0.0,0.0,97,0.00,,,0.00,WUHU21623XXSP,2012-12-14 12:12:00,
2012-12-14 04:17:00,36.3,35.5,29.75,ESE,112,0.0,0.0,97,0.00,,,0.00,WUHU21623XXSP,2012-12-14 12:17:00,
2012-12-14 04:22:00,36.3,35.5,29.75,ESE,112,0.0,0.0,97,0.00,,,0.00,WUHU21623XXSP,2012-12-14 12:22:00,
2012-12-14 04:27:00,36.3,35.5,29.75,ESE,112,0.0,0.0,97,0.00,,,0.00,WUHU21623XXSP,2012-12-14 12:27:00,
2012-12-14 04:32:00,36.3,35.5,29.75,ESE,112,0.0,0.0,97,0.00,,,0.00,WUHU21623XXSP,2012-12-14 12:32:00,
2012-12-14 04:37:00,36.1,35.3,29.74,ESE,112,0.0,0.0,97,0.00,,,0.00,WUHU21623XXSP,2012-12-14 12:37:00,
2012-12-14 04:42:00,36.1,35.3,29.75,ESE,112,0.0,0.0,97,0.00,,,0.00,WUHU21623XXSP,2012-12-14 12:42:00,
2012-12-14 04:47:00,36.1,35.3,29.75,ESE,112,0.0,0.0,97,0.00,,,0.00,WUHU21623XXSP,2012-12-14 12:47:00,
2012-12-14 04:52:00,36.1,35.3,29.75,ESE,112,0.0,0.0,97,0.00,,,0.00,WUHU21623XXSP,2012-12-14 12:52:00,
2012-12-14 04:57:00,36.0,35.1,29.75,ESE,112,0.0,0.0,97,0.00,,,0.00,WUHU21623XXSP,2012-12-14 12:57:00,
2012-12-14 05:02:00,36.0,35.1,29.75,SE,135,0.0,0.0,97,0.00,,,0.00,WUHU21623XXSP,2012-12-14 13:02:00,
2012-12-14 05:07:00,36.1,35.3,29.75,SE,135,0.0,0.0,97,0.00,,,0.00,WUHU21623XXSP,2012-12-14 13:07:00,
2012-12-14 05:12:00,36.1,35.3,29.75,SE,135,0.0,0.0,97,0.00,,,0.00,WUHU21623XXSP,2012-12-14 13:12:00,
2012-12-14 05:17:00,36.0,35.1,29.75,SE,135,0.0,0.0,97,0.00,,,0.00,WUHU21623XXSP,2012-12-14 13:17:00,
2012-12-14 05:22:00,35.8,35.1,29.75,SE,135,0.0,0.0,97,0.00,,,0.00,WUHU21623XXSP,2012-12-14 13:22:00,
2012-12-14 05:27:00,35.8,35.0,29.75,SE,135,0.0,0.0,97,0.00,,,0.00,WUHU21623XXSP,2012-12-14 13:27:00,
2012-12-14 05:32:00,35.8,35.0,29.75,SE,135,0.0,0.0,97,0.00,,,0.00,WUHU21623XXSP,2012-12-14 13:32:00,
2012-12-14 05:37:00,35.8,35.0,29.75,SE,135,0.0,0.0,97,0.00,,,0.00,WUHU21623XXSP,2012-12-14 13:37:00,
2012-12-14 05:42:00,35.8,35.0,29.75,East,90,0.0,0.0,97,0.00,,,0.00,WUHU21623XXSP,2012-12-14 13:42:00,
2012-12-14 05:47:00,35.8,35.0,29.75,East,90,0.0,0.0,97,0.00,,,0.00,WUHU21623XXSP,2012-12-14 13:47:00,
2012-12-14 05:52:00,35.8,35.0,29.75,East,90,0.0,0.0,97,0.00,,,0.00,WUHU21623XXSP,2012-12-14 13:52:00,
2012-12-14 05:57:00,35.8,35.0,29.75,East,90,0.0,0.0,97,0.00,,,0.00,WUHU21623XXSP,2012-12-14 13:57:00,
2012-12-14 06:02:00,35.8,35.0,29.76,East,90,0.0,0.0,97,0.00,,,0.00,WUHU21623XXSP,2012-12-14 14:02:00,
2012-12-14 06:07:00,35.8,35.0,29.76,East,90,0.0,0.0,97,0.00,,,0.00,WUHU21623XXSP,2012-12-14 14:07:00,
2012-12-14 06:12:00,35.8,35.0,29.76,East,90,0.0,0.0,97,0.00,,,0.00,WUHU21623XXSP,2012-12-14 14:12:00,
2012-12-14 06:17:00,35.8,35.0,29.76,East,90,0.0,0.0,97,0.00,,,0.00,WUHU21623XXSP,2012-12-14 14:17:00,
2012-12-14 06:22:00,35.8,35.0,29.76,East,90,0.0,0.0,97,0.00,,,0.00,WUHU21623XXSP,2012-12-14 14:22:00,
2012-12-14 06:27:00,35.8,35.0,29.76,East,90,0.0,0.0,97,0.00,,,0.00,WUHU21623XXSP,2012-12-14 14:27:00,
2012-12-14 06:32:00,35.8,35.0,29.76,East,90,0.0,0.0,97,0.00,,,0.00,WUHU21623XXSP,2012-12-14 14:32:00,
2012-12-14 06:37:00,35.8,35.0,29.76,East,90,0.0,0.0,97,0.00,,,0.00,WUHU21623XXSP,2012-12-14 14:37:00,
2012-12-14 06:42:00,35.8,35.0,29.76,East,90,0.0,0.0,97,0.00,,,0.00,WUHU21623XXSP,2012-12-14 14:42:00,
2012-12-14 06:47:00,35.8,35.0,29.76,East,90,0.0,0.0,97,0.00,,,0.00,WUHU21623XXSP,2012-12-14 14:47:00,
2012-12-14 06:52:00,35.8,35.0,29.76,East,90,0.0,0.0,97,0.00,,,0.00,WUHU21623XXSP,2012-12-14 14:52:00,
2012-12-14 06:57:00,35.8,35.0,29.76,East,90,0.0,0.0,97,0.00,,,0.00,WUHU21623XXSP,2012-12-14 14:57:00,
2012-12-14 07:02:00,35.8,35.0,29.76,East,90,0.0,0.0,97,0.00,,,0.00,WUHU21623XXSP,2012-12-14 15:02:00,
2012-12-14 07:07:00,35.8,35.0,29.76,East,90,0.0,0.0,97,0.00,,,0.00,WUHU21623XXSP,2012-12-14 15:07:00,
2012-12-14 07:12:00,35.8,35.0,29.76,East,90,0.0,0.0,97,0.00,,,0.00,WUHU21623XXSP,2012-12-14 15:12:00,
2012-12-14 07:17:00,35.8,35.0,29.76,NE,45,0.0,0.0,97,0.00,,,0.00,WUHU21623XXSP,2012-12-14 15:17:00,
2012-12-14 07:22:00,35.8,35.0,29.76,ENE,67,0.0,0.0,97,0.00,,,0.00,WUHU21623XXSP,2012-12-14 15:22:00,
2012-12-14 07:27:00,35.8,35.0,29.76,ENE,67,0.0,0.0,97,0.00,,,0.00,WUHU21623XXSP,2012-12-14 15:27:00,
2012-12-14 07:32:00,35.8,35.0,29.76,ENE,67,0.0,0.0,97,0.00,,,0.00,WUHU21623XXSP,2012-12-14 15:32:00,
2012-12-14 07:37:00,35.8,35.0,29.76,ENE,67,0.0,0.0,97,0.00,,,0.00,WUHU21623XXSP,2012-12-14 15:37:00,
2012-12-14 07:42:00,35.8,35.0,29.77,ENE,67,0.0,0.0,97,0.00,,,0.00,WUHU21623XXSP,2012-12-14 15:42:00,
2012-12-14 07:47:00,35.8,35.0,29.77,ENE,67,0.0,0.0,97,0.00,,,0.00,WUHU21623XXSP,2012-12-14 15:47:00,
2012-12-14 07:52:00,36.0,35.1,29.76,ENE,67,0.0,0.0,97,0.00,,,0.00,WUHU21623XXSP,2012-12-14 15:52:00,
2012-12-14 07:57:00,36.0,35.1,29.76,ENE,67,0.0,0.0,97,0.00,,,0.00,WUHU21623XXSP,2012-12-14 15:57:00,
2012-12-14 08:02:00,36.0,35.1,29.77,ENE,67,0.0,0.0,97,0.00,,,0.00,WUHU21623XXSP,2012-12-14 16:02:00,
2012-12-14 08:07:00,36.0,35.1,29.78,ENE,67,0.0,0.0,97,0.00,,,0.00,WUHU21623XXSP,2012-12-14 16:07:00,
2012-12-14 08:12:00,35.8,35.0,29.78,ENE,67,0.0,0.0,97,0.00,,,0.00,WUHU21623XXSP,2012-12-14 16:12:00,
2012-12-14 08:17:00,36.0,35.1,29.78,ENE,67,0.0,0.0,97,0.00,,,0.00,WUHU21623XXSP,2012-12-14 16:17:00,
2012-12-14 08:22:00,36.0,35.1,29.78,NE,45,0.0,0.0,97,0.00,,,0.00,WUHU21623XXSP,2012-12-14 16:22:00,
2012-12-14 08:27:00,36.0,35.1,29.78,NE,45,0.0,0.0,97,0.00,,,0.00,WUHU21623XXSP,2012-12-14 16:27:00,
2012-12-14 08:32:00,35.8,35.0,29.78,NE,45,0.0,0.0,97,0.00,,,0.00,WUHU21623XXSP,2012-12-14 16:32:00,
2012-12-14 08:37:00,36.0,35.1,29.79,NE,45,0.0,0.0,97,0.00,,,0.00,WUHU21623XXSP,2012-12-14 16:37:00,
2012-12-14 08:42:00,36.0,35.1,29.78,NE,45,0.0,0.0,97,0.00,,,0.00,WUHU21623XXSP,2012-12-14 16:42:00,
2012-12-14 08:47:00,36.1,35.3,29.79,NE,45,0.0,0.0,97,0.00,,,0.00,WUHU21623XXSP,2012-12-14 16:47:00,
2012-12-14 08:52:00,36.1,35.3,29.79,NE,45,0.0,0.0,97,0.00,,,0.00,WUHU21623XXSP,2012-12-14 16:52:00,
2012-12-14 08:57:00,36.1,35.3,29.79,NE,45,0.0,0.0,97,0.00,,,0.00,WUHU21623XXSP,2012-12-14 16:57:00,
2012-12-14 09:02:00,36.1,35.3,29.79,NE,45,0.0,0.0,97,0.00,,,0.00,WUHU21623XXSP,2012-12-14 17:02:00,
2012-12-14 09:07:00,36.3,35.5,29.79,NE,45,0.0,0.0,97,0.00,,,0.00,WUHU21623XXSP,2012-12-14 17:07:00,
2012-12-14 09:12:00,36.3,35.5,29.79,NE,45,0.0,0.0,97,0.00,,,0.00,WUHU21623XXSP,2012-12-14 17:12:00,
2012-12-14 09:17:00,36.3,35.5,29.80,NE,45,0.0,0.0,97,0.00,,,0.00,WUHU21623XXSP,2012-12-14 17:17:00,
2012-12-14 09:22:00,36.3,35.5,29.80,NE,45,0.0,0.0,97,0.00,,,0.00,WUHU21623XXSP,2012-12-14 17:22:00,
2012-12-14 09:27:00,36.5,35.7,29.80,NE,45,0.0,0.0,97,0.00,,,0.00,WUHU21623XXSP,2012-12-14 17:27:00,
2012-12-14 09:32:00,36.5,35.7,29.80,NE,45,0.0,0.0,97,0.00,,,0.00,WUHU21623XXSP,2012-12-14 17:32:00,
2012-12-14 09:37:00,36.7,35.9,29.81,NE,45,0.0,0.0,97,0.00,,,0.00,WUHU21623XXSP,2012-12-14 17:37:00,
2012-12-14 09:42:00,36.7,35.9,29.80,NE,45,0.0,0.0,97,0.00,,,0.00,WUHU21623XXSP,2012-12-14 17:42:00,
2012-12-14 09:47:00,36.9,36.3,29.81,NE,45,0.0,0.0,98,0.00,,,0.00,WUHU21623XXSP,2012-12-14 17:47:00,
2012-12-14 09:52:00,37.0,36.5,29.81,NE,45,0.0,0.0,98,0.00,,,0.00,WUHU21623XXSP,2012-12-14 17:52:00,
2012-12-14 09:57:00,37.0,36.5,29.81,NE,45,0.0,0.0,98,0.00,,,0.00,WUHU21623XXSP,2012-12-14 17:57:00,
2012-12-14 10:02:00,37.2,36.7,29.82,NE,45,0.0,0.0,98,0.00,,,0.00,WUHU21623XXSP,2012-12-14 18:02:00,
2012-12-14 10:07:00,37.2,36.7,29.82,NE,45,0.0,0.0,98,0.00,,,0.00,WUHU21623XXSP,2012-12-14 18:07:00,
2012-12-14 10:12:00,37.2,36.7,29.81,NE,45,0.0,0.0,98,0.00,,,0.00,WUHU21623XXSP,2012-12-14 18:12:00,
2012-12-14 10:17:00,37.4,36.9,29.82,NE,45,0.0,0.0,98,0.00,,,0.00,WUHU21623XXSP,2012-12-14 18:17:00,
2012-12-14 10:22:00,37.6,37.0,29.82,NE,45,0.0,0.0,98,0.00,,,0.00,WUHU21623XXSP,2012-12-14 18:22:00,
2012-12-14 10:27:00,37.6,37.0,29.83,NE,45,0.0,0.0,98,0.00,,,0.00,WUHU21623XXSP,2012-12-14 18:27:00,
2012-12-14 10:32:00,37.8,37.2,29.82,NE,45,0.0,0.0,98,0.00,,,0.00,WUHU21623XXSP,2012-12-14 18:32:00,
2012-12-14 10:37:00,37.8,37.2,29.82,NE,45,0.0,0.0,98,0.00,,,0.00,WUHU21623XXSP,2012-12-14 18:37:00,
2012-12-14 10:42:00,37.9,37.4,29.82,NE,45,0.0,0.0,98,0.00,,,0.00,WUHU21623XXSP,2012-12-14 18:42:00,
2012-12-14 10:47:00,37.9,37.4,29.82,NE,45,0.0,0.0,98,0.00,,,0.00,WUHU21623XXSP,2012-12-14 18:47:00,
2012-12-14 10:52:00,37.9,37.4,29.82,NE,45,0.0,0.0,98,0.00,,,0.00,WUHU21623XXSP,2012-12-14 18:52:00,
2012-12-14 10:57:00,37.9,37.4,29.82,NE,45,0.0,0.0,98,0.00,,,0.00,WUHU21623XXSP,2012-12-14 18:57:00,
2012-12-14 11:02:00,37.9,37.4,29.82,NE,45,0.0,0.0,98,0.00,,,0.00,WUHU21623XXSP,2012-12-14 19:02:00,
2012-12-14 11:07:00,37.9,37.4,29.82,NE,45,0.0,0.0,98,0.00,,,0.00,WUHU21623XXSP,2012-12-14 19:07:00,
2012-12-14 11:12:00,37.9,37.4,29.82,NE,45,0.0,0.0,98,0.00,,,0.00,WUHU21623XXSP,2012-12-14 19:12:00,
2012-12-14 11:17:00,37.9,37.4,29.82,NE,45,0.0,0.0,98,0.00,,,0.00,WUHU21623XXSP,2012-12-14 19:17:00,
2012-12-14 11:22:00,37.9,37.4,29.82,NE,45,0.0,0.0,98,0.00,,,0.00,WUHU21623XXSP,2012-12-14 19:22:00,
2012-12-14 11:27:00,38.1,37.6,29.82,NE,45,0.0,0.0,98,0.00,,,0.00,WUHU21623XXSP,2012-12-14 19:27:00,
2012-12-14 11:32:00,38.3,37.8,29.82,NE,45,0.0,0.0,98,0.00,,,0.00,WUHU21623XXSP,2012-12-14 19:32:00,
2012-12-14 11:37:00,38.3,37.8,29.83,NE,45,0.0,0.0,98,0.00,,,0.00,WUHU21623XXSP,2012-12-14 19:37:00,
2012-12-14 11:42:00,38.5,37.9,29.82,NE,45,0.0,0.0,98,0.00,,,0.00,WUHU21623XXSP,2012-12-14 19:42:00,
2012-12-14 11:47:00,38.5,37.9,29.83,NE,45,0.0,0.0,98,0.00,,,0.00,WUHU21623XXSP,2012-12-14 19:47:00,
2012-12-14 11:52:00,38.8,38.3,29.83,NE,45,0.0,0.0,98,0.00,,,0.00,WUHU21623XXSP,2012-12-14 19:52:00,
2012-12-14 11:57:00,38.8,38.3,29.83,NE,45,0.0,0.0,98,0.00,,,0.00,WUHU21623XXSP,2012-12-14 19:57:00,
2012-12-14 12:02:00,39.0,38.5,29.83,NE,45,0.0,0.0,98,0.00,,,0.00,WUHU21623XXSP,2012-12-14 20:02:00,
2012-12-14 12:07:00,39.0,38.5,29.84,NE,45,0.0,0.0,98,0.00,,,0.00,WUHU21623XXSP,2012-12-14 20:07:00,
2012-12-14 12:12:00,39.0,38.5,29.83,NE,45,0.0,0.0,98,0.00,,,0.00,WUHU21623XXSP,2012-12-14 20:12:00,
2012-12-14 12:17:00,39.4,38.8,29.83,NE,45,0.0,0.0,98,0.00,,,0.00,WUHU21623XXSP,2012-12-14 20:17:00,
2012-12-14 12:22:00,39.4,38.8,29.83,NE,45,0.0,0.0,98,0.00,,,0.00,WUHU21623XXSP,2012-12-14 20:22:00,
2012-12-14 12:27:00,39.6,39.0,29.83,NE,45,0.0,0.0,98,0.00,,,0.00,WUHU21623XXSP,2012-12-14 20:27:00,
2012-12-14 12:32:00,39.6,39.0,29.83,NE,45,0.0,0.0,98,0.00,,,0.00,WUHU21623XXSP,2012-12-14 20:32:00,
2012-12-14 12:37:00,39.7,38.9,29.83,NE,45,0.0,0.0,97,0.00,,,0.00,WUHU21623XXSP,2012-12-14 20:37:00,
2012-12-14 12:42:00,39.7,38.9,29.84,NE,45,0.0,0.0,97,0.00,,,0.00,WUHU21623XXSP,2012-12-14 20:42:00,
2012-12-14 12:47:00,39.9,39.1,29.84,NE,45,0.0,0.0,97,0.00,,,0.00,WUHU21623XXSP,2012-12-14 20:47:00,
2012-12-14 12:52:00,39.9,39.1,29.84,ENE,67,0.0,0.0,97,0.00,,,0.00,WUHU21623XXSP,2012-12-14 20:52:00,
2012-12-14 12:57:00,39.9,39.1,29.84,ENE,67,0.0,0.0,97,0.00,,,0.00,WUHU21623XXSP,2012-12-14 20:57:00,
2012-12-14 13:02:00,39.9,39.1,29.84,ENE,67,0.0,0.0,97,0.00,,,0.00,WUHU21623XXSP,2012-12-14 21:02:00,
2012-12-14 13:07:00,39.9,39.1,29.84,ENE,67,0.0,0.0,97,0.00,,,0.00,WUHU21623XXSP,2012-12-14 21:07:00,
2012-12-14 13:12:00,40.1,39.3,29.84,ENE,67,0.0,0.0,97,0.00,,,0.00,WUHU21623XXSP,2012-12-14 21:12:00,
2012-12-14 13:17:00,40.1,39.3,29.84,ENE,67,0.0,0.0,97,0.00,,,0.00,WUHU21623XXSP,2012-12-14 21:17:00,
2012-12-14 13:22:00,40.3,39.5,29.84,ENE,67,0.0,0.0,97,0.00,,,0.00,WUHU21623XXSP,2012-12-14 21:22:00,
2012-12-14 13:27:00,40.3,39.5,29.84,ENE,67,0.0,0.0,97,0.00,,,0.00,WUHU21623XXSP,2012-12-14 21:27:00,
2012-12-14 13:32:00,40.1,39.3,29.84,ENE,67,0.0,0.0,97,0.00,,,0.00,WUHU21623XXSP,2012-12-14 21:32:00,
2012-12-14 13:37:00,39.9,39.1,29.84,ENE,67,0.0,0.0,97,0.00,,,0.00,WUHU21623XXSP,2012-12-14 21:37:00,
2012-12-14 13:42:00,39.7,38.9,29.84,ENE,67,0.0,0.0,97,0.00,,,0.00,WUHU21623XXSP,2012-12-14 21:42:00,
2012-12-14 13:47:00,39.6,38.8,29.84,ENE,67,0.0,0.0,97,0.00,,,0.00,WUHU21623XXSP,2012-12-14 21:47:00,
2012-12-14 13:52:00,39.6,38.8,29.84,ENE,67,0.0,0.0,97,0.00,,,0.00,WUHU21623XXSP,2012-12-14 21:52:00,
2012-12-14 13:57:00,39.6,38.8,29.84,ENE,67,0.0,0.0,97,0.00,,,0.00,WUHU21623XXSP,2012-12-14 21:57:00,
2012-12-14 14:02:00,39.6,38.8,29.84,ENE,67,0.0,0.0,97,0.00,,,0.00,WUHU21623XXSP,2012-12-14 22:02:00,
2012-12-14 14:07:00,39.4,38.6,29.85,ENE,67,0.0,0.0,97,0.00,,,0.00,WUHU21623XXSP,2012-12-14 22:07:00,
2012-12-14 14:12:00,39.4,38.6,29.85,ENE,67,0.0,0.0,97,0.00,,,0.00,WUHU21623XXSP,2012-12-14 22:12:00,
2012-12-14 14:17:00,39.4,38.6,29.85,ENE,67,0.0,0.0,97,0.00,,,0.00,WUHU21623XXSP,2012-12-14 22:17:00,
2012-12-14 14:22:00,39.4,38.6,29.85,ENE,67,0.0,0.0,97,0.00,,,0.00,WUHU21623XXSP,2012-12-14 22:22:00,
2012-12-14 14:27:00,39.4,38.6,29.85,ENE,67,0.0,0.0,97,0.00,,,0.00,WUHU21623XXSP,2012-12-14 22:27:00,
2012-12-14 14:32:00,39.4,38.6,29.85,ENE,67,0.0,0.0,97,0.00,,,0.00,WUHU21623XXSP,2012-12-14 22:32:00,
2012-12-14 14:37:00,39.4,38.6,29.85,ENE,67,0.0,0.0,97,0.00,,,0.00,WUHU21623XXSP,2012-12-14 22:37:00,
2012-12-14 14:42:00,39.0,38.2,29.85,ENE,67,0.0,0.0,97,0.00,,,0.00,WUHU21623XXSP,2012-12-14 22:42:00,
2012-12-14 14:47:00,38.8,38.0,29.85,ENE,67,0.0,0.0,97,0.00,,,0.00,WUHU21623XXSP,2012-12-14 22:47:00,
2012-12-14 14:52:00,38.8,38.0,29.85,ENE,67,0.0,0.0,97,0.00,,,0.00,WUHU21623XXSP,2012-12-14 22:52:00,
2012-12-14 14:57:00,38.5,37.7,29.85,ENE,67,0.0,0.0,97,0.00,,,0.00,WUHU21623XXSP,2012-12-14 22:57:00,
2012-12-14 15:02:00,38.1,37.3,29.85,ENE,67,0.0,0.0,97,0.00,,,0.00,WUHU21623XXSP,2012-12-14 23:02:00,
2012-12-14 15:07:00,37.9,36.9,29.86,ENE,67,0.0,0.0,96,0.00,,,0.00,WUHU21623XXSP,2012-12-14 23:07:00,
2012-12-14 15:12:00,37.9,36.9,29.86,ENE,67,0.0,0.0,96,0.00,,,0.00,WUHU21623XXSP,2012-12-14 23:12:00,
2012-12-14 15:17:00,37.8,36.7,29.86,ENE,67,0.0,0.0,96,0.00,,,0.00,WUHU21623XXSP,2012-12-14 23:17:00,
2012-12-14 15:22:00,37.4,36.3,29.87,ENE,67,0.0,0.0,96,0.00,,,0.00,WUHU21623XXSP,2012-12-14 23:22:00,
2012-12-14 15:27:00,37.4,36.3,29.87,ENE,67,0.0,0.0,96,0.00,,,0.00,WUHU21623XXSP,2012-12-14 23:27:00,
2012-12-14 15:32:00,37.2,36.1,29.86,ENE,67,0.0,0.0,96,0.00,,,0.00,WUHU21623XXSP,2012-12-14 23:32:00,
2012-12-14 15:37:00,37.0,36.2,29.86,ENE,67,0.0,0.0,97,0.00,,,0.00,WUHU21623XXSP,2012-12-14 23:37:00,
2012-12-14 15:42:00,37.0,36.2,29.87,ENE,67,0.0,0.0,97,0.00,,,0.00,WUHU21623XXSP,2012-12-14 23:42:00,
2012-12-14 15:48:00,36.9,36.0,29.87,ENE,67,0.0,0.0,97,0.00,,,0.00,WUHU21623XXSP,2012-12-14 23:48:00,
2012-12-14 15:53:00,36.7,35.9,29.87,ENE,67,0.0,0.0,97,0.00,,,0.00,WUHU21623XXSP,2012-12-14 23:53:00,
2012-12-14 15:58:00,36.7,35.9,29.87,ENE,67,0.0,0.0,97,0.00,,,0.00,WUHU21623XXSP,2012-12-14 23:58:00,
2012-12-14 16:03:00,36.5,35.7,29.88,ENE,67,0.0,0.0,97,0.00,,,0.00,WUHU21623XXSP,2012-12-15 00:03:00,
2012-12-14 16:08:00,36.5,35.7,29.88,ENE,67,0.0,0.0,97,0.00,,,0.00,WUHU21623XXSP,2012-12-15 00:08:00,
2012-12-14 16:13:00,36.5,35.7,29.88,ENE,67,0.0,0.0,97,0.00,,,0.00,WUHU21623XXSP,2012-12-15 00:13:00,
2012-12-14 16:18:00,36.5,35.7,29.88,ENE,67,0.0,0.0,97,0.00,,,0.00,WUHU21623XXSP,2012-12-15 00:18:00,
2012-12-14 16:23:00,36.3,35.5,29.88,ENE,67,0.0,0.0,97,0.00,,,0.00,WUHU21623XXSP,2012-12-15 00:23:00,
2012-12-14 16:28:00,36.3,35.5,29.88,ENE,67,0.0,0.0,97,0.00,,,0.00,WUHU21623XXSP,2012-12-15 00:28:00,
2012-12-14 16:32:00,36.3,35.5,29.88,ENE,67,0.0,0.0,97,0.00,,,0.00,WUHU21623XXSP,2012-12-15 00:32:00,
2012-12-14 16:37:00,36.3,35.5,29.88,ENE,67,0.0,0.0,97,0.00,,,0.00,WUHU21623XXSP,2012-12-15 00:37:00,
2012-12-14 16:42:00,36.3,35.5,29.88,ENE,67,0.0,0.0,97,0.00,,,0.00,WUHU21623XXSP,2012-12-15 00:42:00,
2012-12-14 16:47:00,36.1,35.3,29.88,ENE,67,0.0,0.0,97,0.00,,,0.00,WUHU21623XXSP,2012-12-15 00:47:00,
2012-12-14 16:52:00,36.1,35.3,29.88,ENE,67,0.0,0.0,97,0.00,,,0.00,WUHU21623XXSP,2012-12-15 00:52:00,
2012-12-14 16:57:00,36.0,35.1,29.88,ENE,67,0.0,0.0,97,0.00,,,0.00,WUHU21623XXSP,2012-12-15 00:57:00,
2012-12-14 17:02:00,35.8,35.1,29.89,ENE,67,0.0,0.0,97,0.00,,,0.00,WUHU21623XXSP,2012-12-15 01:02:00,
2012-12-14 17:07:00,35.8,35.0,29.89,ENE,67,0.0,0.0,97,0.00,,,0.00,WUHU21623XXSP,2012-12-15 01:07:00,
2012-12-14 17:12:00,35.6,34.8,29.88,ENE,67,0.0,0.0,97,0.00,,,0.00,WUHU21623XXSP,2012-12-15 01:12:00,
2012-12-14 17:17:00,35.4,34.6,29.89,ENE,67,0.0,0.0,97,0.00,,,0.00,WUHU21623XXSP,2012-12-15 01:17:00,
2012-12-14 17:22:00,35.4,34.6,29.89,ENE,67,0.0,0.0,97,0.00,,,0.00,WUHU21623XXSP,2012-12-15 01:22:00,
2012-12-14 17:27:00,35.4,34.6,29.89,ENE,67,0.0,0.0,97,0.00,,,0.00,WUHU21623XXSP,2012-12-15 01:27:00,
2012-12-14 17:32:00,35.4,34.6,29.89,ENE,67,0.0,0.0,97,0.00,,,0.00,WUHU21623XXSP,2012-12-15 01:32:00,
2012-12-14 17:37:00,35.6,34.6,29.89,ENE,67,0.0,0.0,97,0.00,,,0.00,WUHU21623XXSP,2012-12-15 01:37:00,
2012-12-14 17:42:00,35.8,35.0,29.89,ENE,67,0.0,0.0,97,0.00,,,0.00,WUHU21623XXSP,2012-12-15 01:42:00,
2012-12-14 17:47:00,35.8,35.0,29.89,ENE,67,0.0,0.0,97,0.00,,,0.00,WUHU21623XXSP,2012-12-15 01:47:00,
2012-12-14 17:52:00,35.8,35.0,29.89,ENE,67,0.0,0.0,97,0.00,,,0.00,WUHU21623XXSP,2012-12-15 01:52:00,
2012-12-14 17:57:00,35.8,35.0,29.89,ENE,67,0.0,0.0,97,0.00,,,0.00,WUHU21623XXSP,2012-12-15 01:57:00,
2012-12-14 18:02:00,35.4,34.6,29.89,ENE,67,0.0,0.0,97,0.00,,,0.00,WUHU21623XXSP,2012-12-15 02:02:00,
2012-12-14 18:07:00,35.4,34.6,29.88,ENE,67,0.0,0.0,97,0.00,,,0.00,WUHU21623XXSP,2012-12-15 02:07:00,
2012-12-14 18:12:00,35.4,34.6,29.88,ENE,67,0.0,0.0,97,0.00,,,0.00,WUHU21623XXSP,2012-12-15 02:12:00,
2012-12-14 18:17:00,35.2,34.4,29.89,ENE,67,0.0,0.0,97,0.00,,,0.00,WUHU21623XXSP,2012-12-15 02:17:00,
2012-12-14 18:22:00,35.2,34.4,29.89,ENE,67,0.0,0.0,97,0.00,,,0.00,WUHU21623XXSP,2012-12-15 02:22:00,
2012-12-14 18:27:00,35.1,34.4,29.89,ENE,67,0.0,0.0,97,0.00,,,0.00,WUHU21623XXSP,2012-12-15 02:27:00,
2012-12-14 18:32:00,34.9,34.1,29.89,ENE,67,0.0,0.0,97,0.00,,,0.00,WUHU21623XXSP,2012-12-15 02:32:00,
2012-12-14 18:37:00,34.7,33.9,29.89,ENE,67,0.0,0.0,97,0.00,,,0.00,WUHU21623XXSP,2012-12-15 02:37:00,
2012-12-14 18:42:00,34.7,33.9,29.89,ENE,67,0.0,0.0,97,0.00,,,0.00,WUHU21623XXSP,2012-12-15 02:42:00,
2012-12-14 18:47:00,34.3,33.5,29.89,ENE,67,0.0,0.0,97,0.00,,,0.00,WUHU21623XXSP,2012-12-15 02:47:00,
2012-12-14 18:53:00,34.3,33.5,29.89,ENE,67,0.0,0.0,97,0.00,,,0.00,WUHU21623XXSP,2012-12-15 02:53:00,
2012-12-14 18:58:00,34.2,33.4,29.89,ENE,67,0.0,0.0,97,0.00,,,0.00,WUHU21623XXSP,2012-12-15 02:58:00,
2012-12-14 19:03:00,34.2,33.4,29.89,ENE,67,0.0,0.0,97,0.00,,,0.00,WUHU21623XXSP,2012-12-15 03:03:00,
2012-12-14 19:08:00,33.8,33.0,29.89,ENE,67,0.0,0.0,97,0.00,,,0.00,WUHU21623XXSP,2012-12-15 03:08:00,
2012-12-14 19:12:00,33.6,32.8,29.89,ENE,67,0.0,0.0,97,0.00,,,0.00,WUHU21623XXSP,2012-12-15 03:12:00,
2012-12-14 19:17:00,33.4,32.6,29.89,ENE,67,0.0,0.0,97,0.00,,,0.00,WUHU21623XXSP,2012-12-15 03:17:00,
2012-12-14 19:22:00,33.4,32.6,29.89,ENE,67,0.0,0.0,97,0.00,,,0.00,WUHU21623XXSP,2012-12-15 03:22:00,
2012-12-14 19:27:00,33.3,32.5,29.89,ENE,67,0.0,0.0,97,0.00,,,0.00,WUHU21623XXSP,2012-12-15 03:27:00,
2012-12-14 19:32:00,33.1,32.3,29.89,ENE,67,0.0,0.0,97,0.00,,,0.00,WUHU21623XXSP,2012-12-15 03:32:00,
2012-12-14 19:37:00,32.9,32.1,29.89,ENE,67,0.0,0.0,97,0.00,,,0.00,WUHU21623XXSP,2012-12-15 03:37:00,
2012-12-14 19:42:00,32.7,32.1,29.89,ENE,67,0.0,0.0,97,0.00,,,0.00,WUHU21623XXSP,2012-12-15 03:42:00,
2012-12-14 19:47:00,32.7,31.9,29.89,NE,45,0.0,0.0,97,0.00,,,0.00,WUHU21623XXSP,2012-12-15 03:47:00,
2012-12-14 19:52:00,32.7,31.9,29.89,NE,45,0.0,0.0,97,0.00,,,0.00,WUHU21623XXSP,2012-12-15 03:52:00,
2012-12-14 19:57:00,32.7,31.9,29.89,NE,45,0.0,0.0,97,0.00,,,0.00,WUHU21623XXSP,2012-12-15 03:57:00,
2012-12-14 20:02:00,32.7,31.9,29.89,NE,45,0.0,0.0,97,0.00,,,0.00,WUHU21623XXSP,2012-12-15 04:02:00,
2012-12-14 20:07:00,32.4,31.6,29.89,NE,45,0.0,0.0,97,0.00,,,0.00,WUHU21623XXSP,2012-12-15 04:07:00,
2012-12-14 20:12:00,32.4,31.6,29.89,NE,45,0.0,0.0,97,0.00,,,0.00,WUHU21623XXSP,2012-12-15 04:12:00,
2012-12-14 20:17:00,32.2,31.4,29.88,ESE,112,0.0,0.0,97,0.00,,,0.00,WUHU21623XXSP,2012-12-15 04:17:00,
2012-12-14 20:22:00,32.2,31.4,29.88,ESE,112,0.0,0.0,97,0.00,,,0.00,WUHU21623XXSP,2012-12-15 04:22:00,
2012-12-14 20:27:00,32.2,31.4,29.88,SE,135,0.0,0.0,97,0.00,,,0.00,WUHU21623XXSP,2012-12-15 04:27:00,
2012-12-14 20:32:00,32.2,31.4,29.88,ENE,67,0.0,0.0,97,0.00,,,0.00,WUHU21623XXSP,2012-12-15 04:32:00,
2012-12-14 20:37:00,32.2,31.4,29.88,ENE,67,0.0,0.0,97,0.00,,,0.00,WUHU21623XXSP,2012-12-15 04:37:00,
2012-12-14 20:42:00,32.2,31.4,29.89,ENE,67,0.0,0.0,97,0.00,,,0.00,WUHU21623XXSP,2012-12-15 04:42:00,
2012-12-14 20:47:00,32.2,31.4,29.89,ENE,67,0.0,0.0,97,0.00,,,0.00,WUHU21623XXSP,2012-12-15 04:47:00,
2012-12-14 20:52:00,32.2,31.4,29.89,ENE,67,0.0,0.0,97,0.00,,,0.00,WUHU21623XXSP,2012-12-15 04:52:00,
2012-12-14 20:57:00,32.2,31.4,29.89,ENE,67,0.0,0.0,97,0.00,,,0.00,WUHU21623XXSP,2012-12-15 04:57:00,
2012-12-14 21:00:00,32.2,31.4,29.89,ENE,67,0.0,0.0,97,0.00,,,0.00,WUHU21623XXSP,2012-12-15 05:00:00,
2012-12-14 21:01:00,32.2,31.4,29.89,ENE,67,0.0,0.0,97,0.00,,,0.00,WUHU21623XXSP,2012-12-15 05:01:00,
2012-12-14 21:06:00,32.2,31.4,29.89,ENE,67,0.0,0.0,97,0.00,,,0.00,WUHU21623XXSP,2012-12-15 05:06:00,
2012-12-14 21:11:00,31.8,31.2,29.89,ENE,67,0.0,0.0,97,0.00,,,0.00,WUHU21623XXSP,2012-12-15 05:11:00,
2012-12-14 21:16:00,32.0,31.2,29.89,ENE,67,0.0,0.0,97,0.00,,,0.00,WUHU21623XXSP,2012-12-15 05:16:00,
2012-12-14 21:20:00,31.8,31.1,29.89,ENE,67,0.0,0.0,97,0.00,,,0.00,WUHU21623XXSP,2012-12-15 05:20:00,
2012-12-14 21:25:00,31.8,31.2,29.88,ENE,67,0.0,0.0,97,0.00,,,0.00,WUHU21623XXSP,2012-12-15 05:25:00,
2012-12-14 21:30:00,32.2,31.1,29.89,ENE,67,0.0,0.0,97,0.00,,,0.00,WUHU21623XXSP,2012-12-15 05:30:00,
2012-12-14 21:35:00,32.2,31.4,29.89,ENE,67,0.0,0.0,97,0.00,,,0.00,WUHU21623XXSP,2012-12-15 05:35:00,
2012-12-14 21:40:00,32.2,31.4,29.89,ENE,67,0.0,0.0,97,0.00,,,0.00,WUHU21623XXSP,2012-12-15 05:40:00,
2012-12-14 21:46:00,32.2,31.4,29.89,ENE,67,0.0,0.0,97,0.00,,,0.00,WUHU21623XXSP,2012-12-15 05:46:00,
2012-12-14 21:51:00,32.2,31.4,29.89,ENE,67,0.0,0.0,97,0.00,,,0.00,WUHU21623XXSP,2012-12-15 05:51:00,
2012-12-14 21:56:00,32.2,31.4,29.89,ENE,67,0.0,0.0,97,0.00,,,0.00,WUHU21623XXSP,2012-12-15 05:56:00,
2012-12-14 22:01:00,32.0,31.2,29.89,ENE,67,0.0,0.0,97,0.00,,,0.00,WUHU21623XXSP,2012-12-15 06:01:00,
2012-12-14 22:06:00,31.8,31.1,29.89,ENE,67,0.0,0.0,97,0.00,,,0.00,WUHU21623XXSP,2012-12-15 06:06:00,
2012-12-14 22:11:00,31.8,31.1,29.89,ENE,67,0.0,0.0,97,0.00,,,0.00,WUHU21623XXSP,2012-12-15 06:11:00,
2012-12-14 22:15:00,31.8,31.1,29.89,ENE,67,0.0,0.0,97,0.00,,,0.00,WUHU21623XXSP,2012-12-15 06:15:00,
2012-12-14 22:20:00,31.8,31.1,29.89,ENE,67,0.0,0.0,97,0.00,,,0.00,WUHU21623XXSP,2012-12-15 06:20:00,
2012-12-14 22:25:00,31.8,31.1,29.89,ENE,67,0.0,0.0,97,0.00,,,0.00,WUHU21623XXSP,2012-12-15 06:25:00,
2012-12-14 22:30:00,31.6,30.9,29.89,ENE,67,0.0,0.0,97,0.00,,,0.00,WUHU21623XXSP,2012-12-15 06:30:00,
2012-12-14 22:35:00,31.6,30.9,29.89,ENE,67,0.0,0.0,97,0.00,,,0.00,WUHU21623XXSP,2012-12-15 06:35:00,
2012-12-14 22:40:00,31.6,30.9,29.89,ENE,67,0.0,0.0,97,0.00,,,0.00,WUHU21623XXSP,2012-12-15 06:40:00,
2012-12-14 22:45:00,31.6,30.9,29.89,ENE,67,0.0,0.0,97,0.00,,,0.00,WUHU21623XXSP,2012-12-15 06:45:00,
2012-12-14 22:50:00,31.6,30.9,29.88,ENE,67,0.0,0.0,97,0.00,,,0.00,WUHU21623XXSP,2012-12-15 06:50:00,
2012-12-14 22:55:00,31.6,30.9,29.89,NNE,22,0.0,0.0,97,0.00,,,0.00,WUHU21623XXSP,2012-12-15 06:55:00,
2012-12-14 23:00:00,31.6,30.9,29.88,NNE,22,0.0,0.0,97,0.00,,,0.00,WUHU21623XXSP,2012-12-15 07:00:00,
2012-12-14 23:05:00,31.8,31.1,29.88,NNE,22,0.0,0.0,97,0.00,,,0.00,WUHU21623XXSP,2012-12-15 07:05:00,
2012-12-14 23:10:00,31.8,30.9,29.88,NNE,22,0.0,0.0,97,0.00,,,0.00,WUHU21623XXSP,2012-12-15 07:10:00,
2012-12-14 23:16:00,31.8,31.1,29.88,NNE,22,0.0,0.0,97,0.00,,,0.00,WUHU21623XXSP,2012-12-15 07:16:00,
2012-12-14 23:21:00,31.8,31.1,29.88,NNE,22,0.0,0.0,97,0.00,,,0.00,WUHU21623XXSP,2012-12-15 07:21:00,
2012-12-14 23:26:00,31.8,31.1,29.88,NNE,22,0.0,0.0,97,0.00,,,0.00,WUHU21623XXSP,2012-12-15 07:26:00,
2012-12-14 23:31:00,31.8,31.1,29.87,NNE,22,0.0,0.0,97,0.00,,,0.00,WUHU21623XXSP,2012-12-15 07:31:00,
2012-12-14 23:36:00,31.8,31.1,29.87,NE,45,0.0,0.0,97,0.00,,,0.00,WUHU21623XXSP,2012-12-15 07:36:00,
2012-12-14 23:41:00,31.8,31.1,29.87,NNE,22,0.0,0.0,97,0.00,,,0.00,WUHU21623XXSP,2012-12-15 07:41:00,
2012-12-14 23:46:00,31.8,31.1,29.87,NNE,22,0.0,0.0,97,0.00,,,0.00,WUHU21623XXSP,2012-12-15 07:46:00,
2012-12-14 23:51:00,32.0,31.2,29.87,NNE,22,0.0,0.0,97,0.00,,,0.00,WUHU21623XXSP,2012-12-15 07:51:00,
2012-12-14 23:56:00,31.8,31.1,29.87,NNE,22,0.0,0.0,97,0.00,,,0.00,WUHU21623XXSP,2012-12-15 07:56:00,